SUMZM MYCI-MBPV

Flight info

Callsign SUMZM
Flight time 0h 35m
Altitude 13000
Route GUANA A555 MICAS
Aircraft PC12/L-SDFGRWY/S

Departure

Time 2026-05-06 22:00
Airport Colonel Hill Airport (MYCI)

Arrival

Time 2026-05-06 22:36
Airport Providenciales International Airport (MBPV)
Time Latitude Longitude Altitude Speed Heading
2026-05-06 21:55 22.74733 -74.17715 11 ft 0 kts 359°
2026-05-06 21:58 22.74734 -74.17715 11 ft 2 kts
2026-05-06 21:58 22.74705 -74.17664 14 ft 16 kts 173°
2026-05-06 21:58 22.74594 -74.17652 14 ft 6 kts 189°
2026-05-06 21:58 22.74575 -74.17671 14 ft 8 kts 271°
2026-05-06 21:59 22.74578 -74.17693 14 ft 0 kts 268°
2026-05-06 21:59 22.74578 -74.17699 14 ft 9 kts 269°
2026-05-06 21:59 22.74571 -74.17848 16 ft 51 kts 265°
2026-05-06 22:00 22.74519 -74.18427 34 ft 95 kts 261°
2026-05-06 22:00 22.74544 -74.19405 409 ft 98 kts 300°
2026-05-06 22:00 22.75110 -74.19744 645 ft 111 kts
2026-05-06 22:00 22.75575 -74.19431 780 ft 129 kts 59°
2026-05-06 22:01 22.75485 -74.18448 1175 ft 151 kts 109°
2026-05-06 22:01 22.74803 -74.17454 1425 ft 173 kts 130°
2026-05-06 22:01 22.74088 -74.16378 1941 ft 175 kts 116°
2026-05-06 22:01 22.73676 -74.15143 2378 ft 174 kts 105°
2026-05-06 22:02 22.73343 -74.13894 2822 ft 175 kts 104°
2026-05-06 22:02 22.72994 -74.12623 3315 ft 176 kts 106°
2026-05-06 22:02 22.72637 -74.11351 3789 ft 179 kts 106°
2026-05-06 22:02 22.72271 -74.10045 4291 ft 182 kts 107°
2026-05-06 22:03 22.71904 -74.08734 4794 ft 183 kts 107°
2026-05-06 22:03 22.71532 -74.07401 5279 ft 185 kts 107°
2026-05-06 22:03 22.71160 -74.06069 5774 ft 185 kts 107°
2026-05-06 22:03 22.70786 -74.04729 6278 ft 186 kts 107°
2026-05-06 22:04 22.70409 -74.03381 6784 ft 187 kts 107°
2026-05-06 22:04 22.70037 -74.02048 7248 ft 188 kts 107°
2026-05-06 22:04 22.69656 -74.00686 7742 ft 189 kts 107°
2026-05-06 22:04 22.69269 -73.99301 8234 ft 190 kts 108°
2026-05-06 22:05 22.68889 -73.97946 8729 ft 191 kts 108°
2026-05-06 22:05 22.68501 -73.96560 9239 ft 193 kts 108°
2026-05-06 22:05 22.68110 -73.95165 9752 ft 194 kts 108°
2026-05-06 22:05 22.67717 -73.93760 10234 ft 195 kts 108°
2026-05-06 22:06 22.67322 -73.92350 10708 ft 197 kts 108°
2026-05-06 22:06 22.66923 -73.90926 11162 ft 198 kts 108°
2026-05-06 22:06 22.66522 -73.89496 11635 ft 199 kts 108°
2026-05-06 22:06 22.66117 -73.88052 12108 ft 200 kts 108°
2026-05-06 22:07 22.65711 -73.86603 12588 ft 201 kts 108°
2026-05-06 22:07 22.65306 -73.85162 12990 ft 207 kts 108°
2026-05-06 22:07 22.64864 -73.83594 13004 ft 228 kts 108°
2026-05-06 22:07 22.64384 -73.81895 13004 ft 242 kts 108°
2026-05-06 22:08 22.63881 -73.80110 13006 ft 253 kts 108°
2026-05-06 22:08 22.63363 -73.78265 13016 ft 260 kts 108°
2026-05-06 22:08 22.62830 -73.76367 13002 ft 265 kts 108°
2026-05-06 22:08 22.62291 -73.74454 13008 ft 268 kts 108°
2026-05-06 22:09 22.61745 -73.72517 13011 ft 270 kts 108°
2026-05-06 22:09 22.61196 -73.70568 13007 ft 271 kts 108°
2026-05-06 22:09 22.60649 -73.68624 13005 ft 271 kts 108°
2026-05-06 22:09 22.60095 -73.66660 13003 ft 272 kts 108°
2026-05-06 22:10 22.59543 -73.64705 13012 ft 272 kts 108°
2026-05-06 22:10 22.58993 -73.62753 13008 ft 272 kts 108°
2026-05-06 22:10 22.58438 -73.60789 13009 ft 272 kts 108°
2026-05-06 22:10 22.57892 -73.58854 13002 ft 272 kts 108°
2026-05-06 22:11 22.57330 -73.56867 13006 ft 272 kts 108°
2026-05-06 22:11 22.56777 -73.54911 13004 ft 272 kts 108°
2026-05-06 22:11 22.56229 -73.52975 13011 ft 272 kts 108°
2026-05-06 22:11 22.55674 -73.51013 13004 ft 272 kts 108°
2026-05-06 22:12 22.55120 -73.49057 13008 ft 272 kts 108°
2026-05-06 22:12 22.54563 -73.47093 13009 ft 272 kts 108°
2026-05-06 22:12 22.54008 -73.45137 13008 ft 272 kts 108°
2026-05-06 22:12 22.53453 -73.43179 13004 ft 272 kts 108°
2026-05-06 22:13 22.52896 -73.41218 13000 ft 273 kts 108°
2026-05-06 22:13 22.52340 -73.39259 13008 ft 273 kts 108°
2026-05-06 22:13 22.51780 -73.37289 13007 ft 273 kts 108°
2026-05-06 22:13 22.51230 -73.35353 13011 ft 273 kts 108°
2026-05-06 22:14 22.50673 -73.33396 13006 ft 273 kts 108°
2026-05-06 22:14 22.50115 -73.31436 13003 ft 273 kts 108°
2026-05-06 22:14 22.49555 -73.29467 13005 ft 273 kts 108°
2026-05-06 22:14 22.48995 -73.27502 13009 ft 273 kts 108°
2026-05-06 22:15 22.48436 -73.25540 13006 ft 273 kts 108°
2026-05-06 22:15 22.47878 -73.23582 13006 ft 273 kts 108°
2026-05-06 22:15 22.47317 -73.21615 13005 ft 273 kts 108°
2026-05-06 22:15 22.46758 -73.19657 13000 ft 273 kts 108°
2026-05-06 22:16 22.46197 -73.17692 13005 ft 273 kts 108°
2026-05-06 22:16 22.45637 -73.15733 13003 ft 273 kts 108°
2026-05-06 22:16 22.45075 -73.13768 13006 ft 273 kts 108°
2026-05-06 22:16 22.44515 -73.11808 13008 ft 274 kts 108°
2026-05-06 22:17 22.43952 -73.09841 13008 ft 274 kts 108°
2026-05-06 22:17 22.43388 -73.07871 13005 ft 273 kts 108°
2026-05-06 22:17 22.42826 -73.05908 13006 ft 273 kts 108°
2026-05-06 22:17 22.42270 -73.03970 13010 ft 273 kts 108°
2026-05-06 22:18 22.41701 -73.01984 13007 ft 274 kts 108°
2026-05-06 22:18 22.41144 -73.00041 13005 ft 274 kts 108°
2026-05-06 22:18 22.40579 -72.98071 13010 ft 274 kts 108°
2026-05-06 22:18 22.40010 -72.96092 12898 ft 277 kts 108°
2026-05-06 22:19 22.39435 -72.94096 12574 ft 278 kts 108°
2026-05-06 22:19 22.38875 -72.92141 12511 ft 265 kts 108°
2026-05-06 22:19 22.38332 -72.90243 12514 ft 266 kts 108°
2026-05-06 22:19 22.37753 -72.88339 12514 ft 264 kts 115°
2026-05-06 22:20 22.36634 -72.86793 12497 ft 262 kts 144°
2026-05-06 22:20 22.35059 -72.85844 12499 ft 259 kts 157°
2026-05-06 22:20 22.33445 -72.84969 12499 ft 261 kts 153°
2026-05-06 22:20 22.31865 -72.83908 12184 ft 272 kts 148°
2026-05-06 22:21 22.30288 -72.82730 11865 ft 276 kts 147°
2026-05-06 22:21 22.28710 -72.81591 11560 ft 278 kts 148°
2026-05-06 22:21 22.27081 -72.80459 11249 ft 278 kts 149°
2026-05-06 22:21 22.25459 -72.79330 10939 ft 272 kts 148°
2026-05-06 22:22 22.23901 -72.78231 10631 ft 261 kts 148°
2026-05-06 22:22 22.22357 -72.77140 10334 ft 268 kts 148°
2026-05-06 22:22 22.20808 -72.76049 10045 ft 270 kts 148°
2026-05-06 22:22 22.19232 -72.74942 9753 ft 270 kts 148°
2026-05-06 22:23 22.17656 -72.73834 9448 ft 270 kts 148°
2026-05-06 22:23 22.16075 -72.72723 9144 ft 270 kts 148°
2026-05-06 22:23 22.14503 -72.71619 8844 ft 269 kts 148°
2026-05-06 22:23 22.12941 -72.70522 8547 ft 268 kts 148°
2026-05-06 22:24 22.11385 -72.69430 8255 ft 265 kts 148°
2026-05-06 22:24 22.09855 -72.68356 7972 ft 260 kts 148°
2026-05-06 22:24 22.08349 -72.67298 7711 ft 258 kts 148°
2026-05-06 22:24 22.06849 -72.66245 7451 ft 256 kts 147°
2026-05-06 22:25 22.05372 -72.65208 7194 ft 255 kts 147°
2026-05-06 22:25 22.03874 -72.64158 6926 ft 254 kts 147°
2026-05-06 22:25 22.02413 -72.63132 6679 ft 253 kts 147°
2026-05-06 22:25 22.00925 -72.62088 6420 ft 251 kts 147°
2026-05-06 22:26 21.99482 -72.61076 6153 ft 250 kts 147°
2026-05-06 22:26 21.98023 -72.60053 5883 ft 250 kts 147°
2026-05-06 22:26 21.96610 -72.59063 5618 ft 249 kts 147°
2026-05-06 22:26 21.95169 -72.58054 5354 ft 247 kts 147°
2026-05-06 22:27 21.93730 -72.57046 5090 ft 246 kts 147°
2026-05-06 22:27 21.92303 -72.56047 4827 ft 245 kts 147°
2026-05-06 22:27 21.90873 -72.55045 4552 ft 244 kts 147°
2026-05-06 22:27 21.89460 -72.54058 4288 ft 243 kts 147°
2026-05-06 22:28 21.88041 -72.53066 4018 ft 242 kts 147°
2026-05-06 22:28 21.86630 -72.52079 3753 ft 241 kts 147°
2026-05-06 22:28 21.85229 -72.51099 3479 ft 241 kts 147°
2026-05-06 22:28 21.83824 -72.50116 3226 ft 240 kts 147°
2026-05-06 22:29 21.82435 -72.49146 2944 ft 229 kts 146°
2026-05-06 22:29 21.81183 -72.48274 2647 ft 201 kts 146°
2026-05-06 22:29 21.80067 -72.47495 2352 ft 182 kts 146°
2026-05-06 22:29 21.79080 -72.46732 2063 ft 167 kts 134°
2026-05-06 22:30 21.78469 -72.45753 1901 ft 151 kts 111°
2026-05-06 22:30 21.78256 -72.44728 1778 ft 129 kts 92°
2026-05-06 22:30 21.78219 -72.43802 1704 ft 120 kts 94°
2026-05-06 22:30 21.78173 -72.42933 1694 ft 114 kts 94°
2026-05-06 22:31 21.78128 -72.42048 1709 ft 126 kts 93°
2026-05-06 22:31 21.78080 -72.41074 1704 ft 135 kts 95°
2026-05-06 22:31 21.78027 -72.40045 1706 ft 139 kts 94°
2026-05-06 22:31 21.77975 -72.38997 1707 ft 141 kts 94°
2026-05-06 22:32 21.77927 -72.38035 1698 ft 108 kts 94°
2026-05-06 22:32 21.77893 -72.37350 1687 ft 86 kts 94°
2026-05-06 22:32 21.77867 -72.36712 1631 ft 82 kts 94°
2026-05-06 22:32 21.77823 -72.36044 1524 ft 90 kts 98°
2026-05-06 22:33 21.77760 -72.35380 1349 ft 91 kts 94°
2026-05-06 22:33 21.77715 -72.34721 1254 ft 88 kts 95°
2026-05-06 22:33 21.77679 -72.34083 1145 ft 86 kts 96°
2026-05-06 22:33 21.77653 -72.33452 1034 ft 85 kts 96°
2026-05-06 22:34 21.77650 -72.32795 911 ft 88 kts 90°
2026-05-06 22:34 21.77649 -72.32137 790 ft 90 kts 90°
2026-05-06 22:34 21.77619 -72.31483 705 ft 86 kts 93°
2026-05-06 22:34 21.77564 -72.30838 591 ft 87 kts 93°
2026-05-06 22:35 21.77540 -72.30192 447 ft 86 kts 89°
2026-05-06 22:35 21.77500 -72.29548 343 ft 87 kts 94°
2026-05-06 22:35 21.77468 -72.28916 240 ft 84 kts 90°
2026-05-06 22:35 21.77439 -72.28306 102 ft 78 kts 91°
2026-05-06 22:36 21.77425 -72.27790 34 ft 59 kts 84°
2026-05-06 22:36 21.77413 -72.27502 34 ft 19 kts 69°
2026-05-06 22:36 21.77495 -72.27461 37 ft 4 kts
2026-05-06 22:36 21.77496 -72.27461 37 ft 0 kts
2026-05-06 22:37 21.77513 -72.27456 37 ft 10 kts 30°
2026-05-06 22:37 21.77521 -72.27337 38 ft 19 kts 92°
2026-05-06 22:37 21.77513 -72.27196 38 ft 18 kts 94°
2026-05-06 22:38 21.77516 -72.27070 38 ft 12 kts 65°
2026-05-06 22:38 21.77556 -72.27032 38 ft 6 kts
2026-05-06 22:38 21.77561 -72.27032 38 ft 0 kts